Terminal Aerodrome Forecast
Issued by NWS Wakefield, VA

Home | Current Version | Previous Version | Text Only | Print | Product List | Glossary On
Versions: 1 2 3 4 5 6 7 8 9 10 11 12 13 14 15 16 17 18
000
FTUS41 KAKQ 222300
TAFECG
TAF
KECG 222320Z 2300/2324 31017G23KT P6SM BKN023 OVC030
     FM230600 30013G20KT P6SM BKN050
     FM231400 30016G22KT P6SM SCT050=

USA.gov is the U.S. government's official web portal to all federal, state and local government web resources and services.